Epoch 2018 June 11.0 TT = JDT 2458280.5
T 2018 June 24.36601 TT MPCW
q 0.7978528 (2000.0) P Q
n 0.20191332 Peri. 211.92795 -0.21380779 +0.96497036
a 2.8775711 Node 46.22815 -0.84612862 -0.10514673
e 0.7227339 Incl. 12.15534 -0.48821367 -0.24036714
P 4.88
From 681 observations 2013 Feb. 1-2018 Nov. 27, mean residual 0".6.
Finding Charts
Magnitudes Graph
H = 16.5 G = 0.15 [ ,-63] ( - 2018 Apr. 22)
m1 = 16.0 + 5 log d + 25.0 log r(t - 5) [-63, 68] (2018 Apr. 22 - 2018 Aug. 31)
H = 16.5 G = 0.15 [ 68, ] (2018 Aug. 31 - )